Voltar ao catálogo

SL-8 DEB

AtivoLEO
NORAD 21109·DEBRIS·🇷🇺 Russia

Lançado Feb 12, 1991 de Plesetsk Cosmodrome

Loading…

Próximas Passagens (próximas 24 horas)

TLE

AtualizadoSource: Space-Track

Época: Sep 14, 2026, 22:38 UTC

1 21109U 91009K   26257.94320375  .00000110  00000-0  11413-2 0  9991
2 21109  74.0285  84.1739 0167002 186.8927 342.4420 12.20921119584352

Acompanhe SL-8 DEB em tempo real com AllMySat

Download on the App Store